Time,TemperatureF,DewpointF,PressureIn,WindDirection,WindDirectionDegrees,WindSpeedMPH,WindSpeedGustMPH,Humidity,HourlyPrecipIn,Conditions,Clouds,dailyrainin,SolarRadiationWatts/m^2,SoftwareType,DateUTC
2014-01-08 00:00:00,-2.0,-5.0,-100.00,South,180,4.0,-999.0,84,-99.99,,,-99.99,0.000000,,2014-01-08 05:00:00,
2014-01-08 00:43:00,-2.0,-5.0,-100.00,South,180,4.0,-999.0,84,-99.99,,,-99.99,0.000000,,2014-01-08 05:43:00,
2014-01-08 00:52:00,-2.0,-5.0,-100.00,South,180,4.0,-999.0,84,-99.99,,,-99.99,0.000000,,2014-01-08 05:52:00,
2014-01-08 01:00:00,-3.0,-7.0,-100.00,South,180,3.0,-999.0,83,-99.99,,,-99.99,0.000000,,2014-01-08 06:00:00,
2014-01-08 01:43:00,-3.0,-7.0,-100.00,South,180,3.0,-999.0,83,-99.99,,,-99.99,0.000000,,2014-01-08 06:43:00,
2014-01-08 01:53:00,-3.0,-7.0,-100.00,South,180,3.0,-999.0,83,-99.99,,,-99.99,0.000000,,2014-01-08 06:53:00,
2014-01-08 02:00:00,-4.0,-7.0,-100.00,SE,135,3.0,-999.0,83,-99.99,,,-99.99,0.000000,,2014-01-08 07:00:00,
2014-01-08 02:42:00,-4.0,-7.0,-100.00,SE,135,3.0,-999.0,83,-99.99,,,-99.99,0.000000,,2014-01-08 07:42:00,
2014-01-08 02:53:00,-4.0,-7.0,-100.00,SE,135,3.0,-999.0,83,-99.99,,,-99.99,0.000000,,2014-01-08 07:53:00,
2014-01-08 03:00:00,-3.0,-6.0,-100.00,SSE,157,2.0,-999.0,84,-99.99,,,-99.99,0.000000,,2014-01-08 08:00:00,
2014-01-08 03:43:00,-3.0,-6.0,-100.00,SSE,157,2.0,-999.0,84,-99.99,,,-99.99,0.000000,,2014-01-08 08:43:00,
2014-01-08 03:53:00,-3.0,-6.0,-100.00,SSE,157,2.0,-999.0,84,-99.99,,,-99.99,0.000000,,2014-01-08 08:53:00,
2014-01-08 04:00:00,0.0,-4.0,-100.00,South,180,2.0,-999.0,85,-99.99,,,-99.99,0.000000,,2014-01-08 09:00:00,
2014-01-08 04:44:00,0.0,-4.0,-100.00,South,180,2.0,-999.0,85,-99.99,,,-99.99,0.000000,,2014-01-08 09:44:00,
2014-01-08 04:54:00,0.0,-4.0,-100.00,South,180,2.0,-999.0,85,-99.99,,,-99.99,0.000000,,2014-01-08 09:54:00,
2014-01-08 05:00:00,1.0,-3.0,-100.00,South,180,2.0,-999.0,85,-99.99,,,-99.99,0.000000,,2014-01-08 10:00:00,
2014-01-08 05:43:00,1.0,-3.0,-100.00,South,180,2.0,-999.0,85,-99.99,,,-99.99,0.000000,,2014-01-08 10:43:00,
2014-01-08 05:53:00,1.0,-3.0,-100.00,South,180,2.0,-999.0,85,-99.99,,,-99.99,0.000000,,2014-01-08 10:53:00,
2014-01-08 06:00:00,3.0,0.0,-100.00,South,180,4.0,-999.0,86,-99.99,,,-99.99,0.000000,,2014-01-08 11:00:00,
2014-01-08 06:43:00,3.0,0.0,-100.00,South,180,4.0,-999.0,86,-99.99,,,-99.99,0.000000,,2014-01-08 11:43:00,
2014-01-08 06:53:00,3.0,0.0,-100.00,South,180,4.0,-999.0,86,-99.99,,,-99.99,0.000000,,2014-01-08 11:53:00,
2014-01-08 07:00:00,3.0,0.0,-100.00,SSW,202,3.0,-999.0,86,-99.99,,,-99.99,0.000000,,2014-01-08 12:00:00,
2014-01-08 07:43:00,3.0,0.0,-100.00,SSW,202,3.0,-999.0,86,-99.99,,,-99.99,0.000000,,2014-01-08 12:43:00,
2014-01-08 07:52:00,3.0,0.0,-100.00,SSW,202,3.0,-999.0,86,-99.99,,,-99.99,0.000000,,2014-01-08 12:52:00,
2014-01-08 08:00:00,2.0,-1.0,-100.00,South,180,1.0,-999.0,86,-99.99,,,-99.99,0.000000,,2014-01-08 13:00:00,
2014-01-08 08:42:00,2.0,-1.0,-100.00,South,180,1.0,-999.0,86,-99.99,,,-99.99,0.000000,,2014-01-08 13:42:00,
2014-01-08 08:52:00,2.0,-1.0,-100.00,South,180,1.0,-999.0,86,-99.99,,,-99.99,0.000000,,2014-01-08 13:52:00,
2014-01-08 09:00:00,2.0,-1.0,-100.00,SSE,157,2.0,-999.0,86,-99.99,,,-99.99,17.400000,,2014-01-08 14:00:00,
2014-01-08 09:42:00,2.0,-1.0,-100.00,SSE,157,2.0,-999.0,86,-99.99,,,-99.99,17.400000,,2014-01-08 14:42:00,
2014-01-08 09:54:00,2.0,-1.0,-100.00,SSE,157,2.0,-999.0,86,-99.99,,,-99.99,17.400000,,2014-01-08 14:54:00,
2014-01-08 10:00:00,4.0,1.0,-100.00,South,180,3.0,-999.0,87,-99.99,,,-99.99,88.160004,,2014-01-08 15:00:00,
2014-01-08 10:43:00,4.0,1.0,-100.00,South,180,3.0,-999.0,87,-99.99,,,-99.99,88.160004,,2014-01-08 15:43:00,
2014-01-08 10:54:00,4.0,1.0,-100.00,South,180,3.0,-999.0,87,-99.99,,,-99.99,88.160004,,2014-01-08 15:54:00,
2014-01-08 11:00:00,7.0,4.0,-100.00,South,180,4.0,-999.0,88,-99.99,,,-99.99,169.360001,,2014-01-08 16:00:00,
2014-01-08 11:43:00,7.0,4.0,-100.00,South,180,4.0,-999.0,88,-99.99,,,-99.99,169.360001,,2014-01-08 16:43:00,
2014-01-08 11:53:00,7.0,4.0,-100.00,South,180,4.0,-999.0,88,-99.99,,,-99.99,169.360001,,2014-01-08 16:53:00,
2014-01-08 12:00:00,10.0,8.0,-100.00,SSW,202,3.0,-999.0,89,-99.99,,,-99.99,237.800003,,2014-01-08 17:00:00,
2014-01-08 12:43:00,10.0,8.0,-100.00,SSW,202,3.0,-999.0,89,-99.99,,,-99.99,237.800003,,2014-01-08 17:43:00,
2014-01-08 12:52:00,10.0,8.0,-100.00,SSW,202,3.0,-999.0,89,-99.99,,,-99.99,237.800003,,2014-01-08 17:52:00,
2014-01-08 13:00:00,14.0,12.0,-100.00,SW,225,3.0,-999.0,90,-99.99,,,-99.99,322.480011,,2014-01-08 18:00:00,
2014-01-08 13:42:00,14.0,12.0,-100.00,SW,225,3.0,-999.0,90,-99.99,,,-99.99,322.480011,,2014-01-08 18:42:00,
2014-01-08 13:52:00,14.0,12.0,-100.00,SW,225,3.0,-999.0,90,-99.99,,,-99.99,322.480011,,2014-01-08 18:52:00,
2014-01-08 14:00:00,16.0,14.0,-100.00,SW,225,4.0,-999.0,90,-99.99,,,-99.99,325.959991,,2014-01-08 19:00:00,
2014-01-08 14:43:00,16.0,14.0,-100.00,SW,225,4.0,-999.0,90,-99.99,,,-99.99,325.959991,,2014-01-08 19:43:00,
2014-01-08 14:53:00,16.0,14.0,-100.00,SW,225,4.0,-999.0,90,-99.99,,,-99.99,325.959991,,2014-01-08 19:53:00,
2014-01-08 15:00:00,16.0,14.0,-100.00,WSW,247,5.0,-999.0,90,-99.99,,,-99.99,244.759995,,2014-01-08 20:00:00,
2014-01-08 15:42:00,16.0,14.0,-100.00,WSW,247,5.0,-999.0,90,-99.99,,,-99.99,244.759995,,2014-01-08 20:42:00,
2014-01-08 15:52:00,16.0,14.0,-100.00,WSW,247,5.0,-999.0,90,-99.99,,,-99.99,244.759995,,2014-01-08 20:52:00,
2014-01-08 16:00:00,17.0,14.0,-100.00,SW,225,4.0,-999.0,89,-99.99,,,-99.99,192.559998,,2014-01-08 21:00:00,
2014-01-08 16:43:00,17.0,14.0,-100.00,SW,225,4.0,-999.0,89,-99.99,,,-99.99,192.559998,,2014-01-08 21:43:00,
2014-01-08 16:53:00,17.0,14.0,-100.00,SW,225,4.0,-999.0,89,-99.99,,,-99.99,192.559998,,2014-01-08 21:53:00,
2014-01-08 17:00:00,16.0,12.0,-100.00,West,270,4.0,-999.0,86,-99.99,,,-99.99,69.599998,,2014-01-08 22:00:00,
2014-01-08 17:43:00,16.0,12.0,-100.00,West,270,4.0,-999.0,86,-99.99,,,-99.99,69.599998,,2014-01-08 22:43:00,
2014-01-08 17:52:00,16.0,12.0,-100.00,West,270,4.0,-999.0,86,-99.99,,,-99.99,69.599998,,2014-01-08 22:52:00,
2014-01-08 18:00:00,14.0,10.0,-100.00,WNW,292,2.0,-999.0,85,-99.99,,,-99.99,5.800000,,2014-01-08 23:00:00,
2014-01-08 18:42:00,14.0,10.0,-100.00,WNW,292,2.0,-999.0,85,-99.99,,,-99.99,5.800000,,2014-01-08 23:42:00,
2014-01-08 18:53:00,14.0,10.0,-100.00,WNW,292,2.0,-999.0,85,-99.99,,,-99.99,5.800000,,2014-01-08 23:53:00,
2014-01-08 19:00:00,9.0,6.0,-100.00,WNW,292,1.0,-999.0,86,-99.99,,,-99.99,0.000000,,2014-01-09 00:00:00,
2014-01-08 19:42:00,9.0,6.0,-100.00,WNW,292,1.0,-999.0,86,-99.99,,,-99.99,0.000000,,2014-01-09 00:42:00,
2014-01-08 19:52:00,9.0,6.0,-100.00,WNW,292,1.0,-999.0,86,-99.99,,,-99.99,0.000000,,2014-01-09 00:52:00,
2014-01-08 22:43:00,7.0,4.0,-100.00,ESE,112,1.0,-999.0,89,-99.99,,,-99.99,0.000000,,2014-01-09 03:43:00,
2014-01-08 23:00:00,8.0,5.0,-100.00,SW,225,0.0,-999.0,89,-99.99,,,-99.99,0.000000,,2014-01-09 04:00:00,
2014-01-08 23:43:00,8.0,5.0,-100.00,SW,225,0.0,-999.0,89,-99.99,,,-99.99,0.000000,,2014-01-09 04:43:00,
2014-01-08 23:53:00,8.0,5.0,-100.00,SW,225,0.0,-999.0,89,-99.99,,,-99.99,0.000000,,2014-01-09 04:53:00,